Flag for U.S.A. Weather past 2 weeks in Unalaska, Alaska, U.S.A.

Now
52 °F

Scattered clouds.


Feels Like: 49 °F
Forecast: 51 / 59 °F
Wind: 8 mph from East

Location: Dutch Harbor

Current Time: Jul 31, 2014 at 4:20:32 PM

Latest Report: Jul 31, 2014 at 3:56 PM


Visibility: 10 mi

Pressure: 30.32 "Hg

Humidity: 86%

Dew point: 48 °F

Location of UnalaskaLocation

Historic Weather in Unalaska — Graph

°F

Unalaska temperature yesterday

Maximum temperature yesterday: 55 °F (at 5:56 PM)
Minimum temperature yesterday: 48 °F (at 6:56 AM)
Average temperature yesterday: 50 °F

Past Weeks' High & Low Weather Summary

 TemperatureHumidityPressure
High60 °F (Jul 16, 4:56 PM)100% (Jul 17, 8:58 AM)30.34 "Hg (Jul 17, 8:58 AM)
Low46 °F (Jul 31, 8:56 AM)62% (Jul 16, 6:56 PM)30.00 "Hg (Jul 17, 4:57 PM)
Average53 °F82%30.18 "Hg
* Reported Jul 16 2:56 PM — Jul 31 2:56 PM, Unalaska, Weather by CustomWeather, © 2014

Note: Actual official high and low records may vary slightly from our data, if they occured in-between our weather recording intervals... More about our weather records

Advertising

Unalaska weather history for previous 24 hours

 ConditionsComfort  
Time TempWeatherWind HumidityBarometerVisibility
2:56 PM
Jul 31
52 °FScattered clouds.5 mph86%30.32 "Hg10 mi
1:56 PM51 °FFog.9 mph89%30.32 "Hg6 mi
12:56 PM50 °FFog.7 mph93%30.32 "Hg1 mi
12:02 PM48 °FFog.3 mph94%30.30 "Hg2 mi
10:56 AM47 °FFog.No wind93%30.34 "Hg0 mi
9:56 AM47 °FFog.No wind93%30.33 "Hg0 mi
8:56 AM46 °FFog.No wind96%30.33 "Hg0 mi
7:56 AM47 °FFog.3 mph97%30.32 "Hg0 mi
6:56 AM47 °FFog.No wind93%30.32 "Hg0 mi
5:56 AM47 °FFog.No wind97%30.32 "Hg0 mi
4:56 AM48 °FFog.3 mph93%30.32 "Hg0 mi
3:56 AM48 °FFog.No wind96%30.31 "Hg0 mi
3:00 AM48 °FLight rain. Fog.No wind100%30.30 "Hg1 mi
1:56 AM49 °FFog.No wind97%30.32 "Hg1 mi
12:56 AM50 °FFog.No wind93%30.31 "Hg0 mi
11:56 PM
Jul 30
50 °FFog.3 mph96%30.31 "Hg0 mi
10:56 PM50 °FFog.No wind93%30.31 "Hg0 mi
9:56 PM50 °FFog.No wind93%30.30 "Hg1 mi
8:56 PM51 °FLow clouds.3 mph92%30.30 "Hg10 mi
7:56 PM54 °FBroken clouds.5 mph83%30.30 "Hg10 mi
6:56 PM53 °FBroken clouds.6 mph86%30.30 "Hg10 mi
5:56 PM55 °FBroken clouds.3 mph80%30.30 "Hg10 mi
4:56 PM54 °FBroken clouds.7 mph83%30.30 "Hg10 mi
Weather by CustomWeather, © 2014

See weather overviewHow to use our weather pages